This is the latest recevied weather packets stored in our database for station/object XE3JAR. If no packets are shown the sender has not sent any weather packets the latest 10 day(s).
| Time | Temp. | Humidity | Pressure | Rain* | Wind** | Luminosity | Snow |
|---|---|---|---|---|---|---|---|
| 1778014299 | 47.78° C | 42% | 1011.5 hPa | - | - | - | - |
| 1778013992 | 47.78° C | 42% | 1011.5 hPa | - | - | - | - |
| 1778012772 | 47.78° C | 42% | 1011.8 hPa | - | - | - | - |
| 1778010948 | 45° C | 47% | 1012.2 hPa | - | - | - | - |
| 1778008213 | 43.89° C | 49% | 1012.2 hPa | - | - | - | - |
| 1778005475 | 45° C | 48% | 1012.9 hPa | - | - | - | - |
| 1778002745 | 42.78° C | 53% | 1013.2 hPa | - | - | - | - |
| 1778001858 | 42.78° C | 53% | 1013.2 hPa | - | - | - | - |
| 1778001558 | 42.78° C | 55% | 1013.2 hPa | - | - | - | - |
| 1777999422 | 41.11° C | 56% | 1014.6 hPa | - | - | - | - |
| 1777993600 | 33.89° C | 75% | 1015.2 hPa | - | - | - | - |
| 1777991782 | 33.89° C | 76% | 1015.2 hPa | - | - | - | - |
| 1777987459 | 28.89° C | 92% | 1014.9 hPa | - | - | - | - |
| 1777980469 | 26.11° C | 99% | 1014.2 hPa | - | - | - | - |
| 1777979261 | 26.11° C | 99% | 1014.6 hPa | - | - | - | - |
| 1777978364 | 26.11° C | 99% | 1014.6 hPa | - | - | - | - |
| 1777975631 | 26.11° C | 99% | 1014.2 hPa | - | - | - | - |
| 1777972597 | 26.11° C | 99% | 1014.2 hPa | - | - | - | - |
| 1777972291 | 26.11° C | 99% | 1014.2 hPa | - | - | - | - |
| 1777971986 | 26.11° C | 99% | 1013.9 hPa | - | - | - | - |
| 1777970768 | 27.22° C | 99% | 1014.2 hPa | - | - | - | - |
| 1777970161 | 27.22° C | 99% | 1014.2 hPa | - | - | - | - |
| 1777967135 | 27.22° C | 99% | 1014.9 hPa | - | - | - | - |
| 1777966509 | 27.22° C | 98% | 1015.2 hPa | - | - | - | - |
| 1777965601 | 27.22° C | 99% | 1015.2 hPa | - | - | - | - |
* Rain since midnight (hover to see other rain measurements)
** Current wind speed in m/s (hover to see current wind gust speed)